N3MFL Weather Reports


Display with metric or nautical units.
time (UTC)temp
F
wind
direction
speed
MPH
gust
MPH
rain 1hr
in
rain 24hr
in
rain mn
in
humidity
%
barometer
mb
20260503013307 48 159 0.0 0.0 0.00 0.00 0.00 91 1011.7
20260503012804 49 160 0.0 0.0 0.00 0.00 0.00 91 1011.6
20260503012301 49 159 0.0 0.0 0.00 0.00 0.00 91 1011.7
20260503011758 49 159 0.0 0.0 0.00 0.00 0.00 91 1011.5
20260503011255 48 159 0.0 0.0 0.00 0.00 0.00 91 1011.5
20260503010751 49 159 0.0 0.0 0.00 0.00 0.00 90 1011.3
20260503010249 49 159 0.0 0.0 0.00 0.00 0.00 90 1011.6
20260503005746 49 159 0.0 0.0 0.00 0.00 0.00 90 1011.4
20260503005243 49 159 0.0 0.0 0.00 0.00 0.00 90 1011.5
20260503004739 49 159 0.0 0.0 0.00 0.00 0.00 90 1011.5
20260503004237 49 180 0.0 0.0 0.00 0.00 0.00 90 1011.4
20260503003734 49 186 0.0 0.0 0.00 0.00 0.00 89 1011.6
20260503003231 49 174 0.0 0.0 0.00 0.00 0.00 89 1011.6
20260503002728 49 184 0.0 0.0 0.00 0.00 0.00 89 1011.2
20260503002225 49 157 0.0 0.0 0.00 0.00 0.00 89 1011.4
20260503001721 49 157 0.0 0.0 0.00 0.00 0.00 89 1011.1
20260503001217 50 157 0.0 0.0 0.00 0.00 0.00 88 1011.3
20260503000715 50 157 0.0 0.0 0.00 0.00 0.00 88 1011.4
20260503000212 50 175 0.0 0.0 0.00 0.00 0.00 88 1011.3
20260502235709 50 175 0.0 0.0 0.00 0.00 0.00 88 1011.4
20260502235208 50 164 0.0 0.0 0.00 0.00 0.00 87 1011.4
20260502234703 50 173 0.0 0.0 0.00 0.00 0.00 87 1011.3
20260502234200 50 179 0.0 0.0 0.00 0.00 0.00 87 1011.2
20260502233656 50 187 0.0 1.0 0.00 0.00 0.00 86 1011.4
20260502233153 50 182 0.0 0.0 0.00 0.00 0.00 86 1011.5
20260502232649 50 202 1.0 1.0 0.00 0.00 0.00 86 1011.3
20260502232147 50 194 0.0 1.0 0.00 0.00 0.00 86 1011.5
20260502231643 50 186 0.0 0.0 0.00 0.00 0.00 86 1011.4
20260502231141 50 176 0.0 0.0 0.00 0.00 0.00 86 1011.4
20260502230640 50 196 1.0 1.0 0.00 0.00 0.00 85 1011.4
20260502230137 50 171 0.0 0.0 0.00 0.00 0.00 85 1011.3
20260502225632 50 177 0.0 0.0 0.00 0.00 0.00 85 1011.3
20260502225131 50 205 1.0 1.0 0.00 0.00 0.00 85 1011.6
20260502224626 51 194 1.0 1.0 0.00 0.00 0.00 85 1011.3
20260502224123 51 187 1.0 1.0 0.00 0.00 0.00 84 1011.3
20260502223621 51 164 0.0 0.0 0.00 0.00 0.00 84 1011.4
20260502223119 51 166 0.0 0.0 0.00 0.00 0.00 85 1011.3
20260502222616 51 179 0.0 0.0 0.00 0.00 0.00 84 1011.2
20260502222112 51 175 1.0 1.0 0.00 0.00 0.00 84 1011.1
20260502221608 51 179 0.0 0.0 0.00 0.00 0.00 84 1011.2
20260502221106 51 226 1.0 1.0 0.00 0.00 0.00 84 1011.2
20260502220601 51 182 0.0 1.0 0.00 0.00 0.00 84 1011.3
20260502220058 51 179 0.0 0.0 0.00 0.00 0.00 84 1011.3
20260502215555 51 174 0.0 0.0 0.00 0.00 0.00 84 1011.4
20260502215052 51 257 2.0 2.0 0.00 0.00 0.00 83 1011.1
20260502214549 51 191 1.0 1.0 0.00 0.00 0.00 83 1011.2
20260502214047 51 217 1.0 2.0 0.00 0.00 0.00 83 1011.0
20260502213543 51 204 0.0 1.0 0.00 0.00 0.00 83 1011.3
20260502213041 51 223 1.0 2.0 0.00 0.00 0.00 82 1011.3
20260502212540 51 259 2.0 3.0 0.00 0.00 0.00 82 1011.3
20260502212037 51 198 1.0 1.0 0.00 0.00 0.00 82 1011.3
20260502211532 51 246 1.0 2.0 0.00 0.00 0.00 82 1011.2
20260502211030 51 113 0.0 0.0 0.00 0.00 0.00 81 1011.4
20260502210527 51 215 1.0 2.0 0.00 0.00 0.00 82 1011.1
20260502210019 51 222 2.0 3.0 0.00 0.00 0.00 81 1011.2
20260502205515 51 209 2.0 3.0 0.00 0.00 0.00 81 1011.2
20260502205012 51 181 1.0 1.0 0.00 0.00 0.00 82 1011.3
20260502204508 51 215 1.0 2.0 0.00 0.00 0.00 82 1011.3
20260502204006 52 201 1.0 1.0 0.00 0.00 0.00 81 1011.1
20260502203458 52 188 2.0 2.0 0.00 0.00 0.00 82 1011.2
20260502202954 52 206 1.0 1.0 0.00 0.00 0.00 82 1011.3
20260502202451 52 217 2.0 3.0 0.00 0.00 0.00 81 1011.5
20260502201949 52 192 2.0 3.0 0.00 0.00 0.00 81 1011.4
20260502201445 52 184 2.0 2.0 0.00 0.00 0.00 81 1011.4
20260502200942 52 186 3.0 3.0 0.00 0.00 0.00 81 1011.4
20260502200437 52 203 2.0 2.0 0.00 0.00 0.00 82 1011.5
20260502195935 52 248 4.0 6.0 0.00 0.00 0.00 82 1011.6
20260502195432 52 224 2.0 3.0 0.00 0.00 0.00 81 1011.5
20260502194929 52 195 3.0 4.0 0.00 0.00 0.00 81 1011.7
20260502194426 53 201 4.0 9.0 0.00 0.00 0.00 81 1011.8
20260502193921 53 204 2.0 3.0 0.00 0.00 0.00 80 1011.7
20260502193419 53 177 5.0 8.0 0.00 0.00 0.00 80 1011.8
20260502192914 53 211 3.0 3.0 0.00 0.00 0.00 80 1011.9
20260502192411 52 192 1.0 2.0 0.00 0.00 0.00 80 1012.0
20260502191908 52 200 2.0 2.0 0.00 0.00 0.00 80 1012.0
20260502191406 52 243 2.0 2.0 0.00 0.00 0.00 78 1012.2
20260502190904 52 230 3.0 3.0 0.00 0.00 0.00 76 1012.3
20260502190401 52 246 4.0 4.0 0.00 0.00 0.00 74 1012.1
20260502185856 52 174 3.0 3.0 0.00 0.00 0.00 74 1012.4
20260502185352 52 214 4.0 6.0 0.00 0.00 0.00 74 1012.3
20260502184850 52 239 2.0 3.0 0.00 0.00 0.00 74 1012.2
20260502184345 53 189 2.0 3.0 0.00 0.00 0.00 76 1012.5
20260502183842 53 164 3.0 3.0 0.00 0.00 0.00 77 1012.3
20260502183338 53 208 2.0 3.0 0.00 0.00 0.00 78 1012.3
20260502182833 54 168 2.0 3.0 0.00 0.00 0.00 77 1012.4
20260502182328 53 202 0.0 1.0 0.00 0.00 0.00 76 1012.3
20260502181825 53 222 3.0 3.0 0.00 0.00 0.00 76 1012.3
20260502181324 53 225 1.0 2.0 0.00 0.00 0.00 77 1012.5
20260502180822 53 201 1.0 2.0 0.00 0.00 0.00 74 1012.3
20260502180319 52 205 2.0 2.0 0.00 0.00 0.00 78 1012.3
20260502170237 53 194 2.0 3.0 0.00 0.00 0.00 78 1012.7
20260502164225 55 193 2.0 2.0 0.00 0.00 0.00 73 1012.6
20260502163720 56 252 4.0 4.0 0.00 0.00 0.00 71 1012.4
20260502163217 56 192 0.0 1.0 0.00 0.00 0.00 69 1012.3
20260502162714 57 206 2.0 2.0 0.00 0.00 0.00 68 1012.4
20260502162211 57 229 5.0 7.0 0.00 0.00 0.00 67 1012.3
20260502161708 57 223 2.0 3.0 0.00 0.00 0.00 66 1012.2
20260502161204 57 204 5.0 7.0 0.00 0.00 0.00 65 1012.5
20260502160703 56 180 1.0 2.0 0.00 0.00 0.00 65 1012.4
20260502160202 57 232 2.0 3.0 0.00 0.00 0.00 68 1012.5
20260502152115 55 155 0.0 0.0 0.00 0.00 0.00 71 1012.6
20260502151612 55 202 1.0 1.0 0.00 0.00 0.00 70 1013.4
20260502151110 56 230 2.0 3.0 0.00 0.00 0.00 71 1013.0
20260502150607 55 218 1.0 1.0 0.00 0.00 0.00 70 1012.7
20260502150103 55 222 1.0 1.0 0.00 0.00 0.00 72 1012.8
20260502130452 53 252 2.0 2.0 0.00 0.00 0.00 75 1013.7
20260502123435 51 261 3.0 4.0 0.00 0.00 0.00 78 1013.7
20260502122932 51 203 2.0 2.0 0.00 0.00 0.00 78 1013.5
20260502122428 51 222 0.0 1.0 0.00 0.00 0.00 78 1013.5
20260502121926 51 211 1.0 2.0 0.00 0.00 0.00 78 1013.6
20260502121423 51 173 2.0 2.0 0.00 0.00 0.00 77 1013.6
20260502120921 51 271 3.0 4.0 0.00 0.00 0.00 77 1013.7
20260502120416 51 247 1.0 1.0 0.00 0.00 0.00 77 1013.2
20260502115914 51 240 1.0 2.0 0.00 0.00 0.00 77 1013.3
20260502115411 51 229 2.0 2.0 0.00 0.00 0.00 77 1013.3
20260502114906 50 205 2.0 2.0 0.00 0.00 0.00 77 1013.4
20260502114404 51 209 1.0 1.0 0.00 0.00 0.00 76 1013.2
20260502113901 51 282 1.0 1.0 0.00 0.00 0.00 76 1013.2
20260502113359 50 192 1.0 1.0 0.00 0.00 0.00 78 1013.0
20260502112857 49 186 1.0 1.0 0.00 0.00 0.00 78 1013.0
20260502112354 48 199 0.0 0.0 0.00 0.00 0.00 79 1013.1
20260502111851 48 190 1.0 2.0 0.00 0.00 0.00 79 1013.2
20260502111348 48 206 1.0 1.0 0.00 0.00 0.00 79 1013.1
20260502110846 48 246 1.0 2.0 0.00 0.00 0.00 79 1013.4
20260502110344 48 215 1.0 1.0 0.00 0.00 0.00 79 1013.2
20260502105841 48 187 0.0 0.0 0.00 0.00 0.00 80 1013.2
20260502105338 48 196 2.0 3.0 0.00 0.00 0.00 80 1013.1
20260502104836 48 171 0.0 0.0 0.00 0.00 0.00 80 1013.0
20260502104333 48 180 1.0 1.0 0.00 0.00 0.00 80 1013.0
20260502103830 48 173 0.0 0.0 0.00 0.00 0.00 80 1012.9
20260502103327 48 184 0.0 0.0 0.00 0.00 0.00 80 1012.9
20260502102825 48 163 0.0 0.0 0.00 0.00 0.00 80 1012.7
20260502102321 47 184 0.0 0.0 0.00 0.00 0.00 80 1012.8
20260502101819 47 184 0.0 1.0 0.00 0.00 0.00 80 1012.6
20260502101317 47 182 0.0 1.0 0.00 0.00 0.00 81 1012.8
20260502100815 46 201 1.0 2.0 0.00 0.00 0.00 81 1012.9
20260502100314 46 208 1.0 2.0 0.00 0.00 0.00 83 1012.9
20260502091247 44 191 0.0 0.0 0.00 0.00 0.00 86 1012.7
20260502090745 44 186 0.0 0.0 0.00 0.00 0.00 86 1012.8
20260502090241 44 158 0.0 0.0 0.00 0.00 0.00 85 1012.5
20260502071142 42 160 0.0 0.0 0.00 0.00 0.00 89 1012.5
20260502070640 42 160 0.0 0.0 0.00 0.00 0.00 88 1012.6
20260502070138 41 160 0.0 0.0 0.00 0.00 0.00 87 1012.5
20260502065636 42 160 0.0 0.0 0.00 0.00 0.00 86 1012.5
20260502065133 42 160 0.0 0.0 0.00 0.00 0.00 86 1012.7
20260502064632 42 160 0.0 0.0 0.00 0.00 0.00 86 1012.6
20260502064128 43 160 0.0 0.0 0.00 0.00 0.00 86 1012.4
20260502063626 43 160 0.0 0.0 0.00 0.00 0.00 86 1012.7
20260502063124 43 160 0.0 0.0 0.00 0.00 0.00 86 1012.7
20260502062621 43 160 0.0 0.0 0.00 0.00 0.00 86 1012.7
20260502062118 42 160 0.0 0.0 0.00 0.00 0.00 86 1012.7
20260502061617 42 160 0.0 0.0 0.00 0.00 0.00 87 1012.9
20260502061114 42 159 0.0 0.0 0.00 0.00 0.00 86 1012.7
20260502060614 42 159 0.0 0.0 0.00 0.00 0.00 86 1012.8
20260502060110 42 162 0.0 0.0 0.00 0.00 0.00 86 1012.8
20260502055608 42 168 0.0 0.0 0.00 0.00 0.00 86 1013.0
20260502055106 42 167 0.0 0.0 0.00 0.00 0.00 86 1013.0
20260502054605 42 167 0.0 0.0 0.00 0.00 0.00 85 1012.9
20260502054102 42 167 0.0 0.0 0.00 0.00 0.00 84 1012.9
20260502053558 42 167 0.0 0.0 0.00 0.00 0.00 84 1013.0
20260502053056 42 167 0.0 0.0 0.00 0.00 0.00 85 1013.1
20260502052555 42 162 0.0 0.0 0.00 0.00 0.00 85 1012.9
20260502052052 42 162 0.0 0.0 0.00 0.00 0.00 84 1013.0
20260502051550 42 162 0.0 0.0 0.00 0.00 0.00 84 1012.9
20260502051048 43 162 0.0 0.0 0.00 0.00 0.00 83 1012.9
20260502050544 44 168 0.0 0.0 0.00 0.00 0.00 82 1013.0
20260502050041 44 177 0.0 0.0 0.00 0.00 0.00 82 1013.1
20260502045537 44 178 0.0 0.0 0.00 0.00 0.00 82 1012.9
20260502045035 44 153 0.0 0.0 0.00 0.00 0.00 81 1013.0
20260502044531 44 153 0.0 0.0 0.00 0.00 0.00 81 1012.9
20260502044028 44 153 0.0 0.0 0.00 0.00 0.00 80 1013.0
20260502043526 44 153 0.0 0.0 0.00 0.00 0.00 80 1013.1
20260502043021 44 153 0.0 0.0 0.00 0.00 0.00 80 1013.0
20260502042516 45 153 0.0 0.0 0.00 0.00 0.00 80 1013.1
20260502042015 45 153 0.0 0.0 0.00 0.00 0.00 79 1013.1
20260502041512 45 153 0.0 0.0 0.00 0.00 0.00 78 1013.1
20260502041009 46 159 0.0 0.0 0.00 0.00 0.00 76 1013.1
20260502040505 46 159 0.0 0.0 0.00 0.00 0.00 73 1013.0
20260502040003 47 159 0.0 0.0 0.00 0.00 0.00 71 1013.0
20260502035458 49 159 0.0 0.0 0.00 0.00 0.00 69 1013.1
20260502034955 50 177 0.0 0.0 0.00 0.00 0.00 64 1013.0
20260502034454 50 200 1.0 1.0 0.00 0.00 0.00 63 1013.1
20260502033952 50 187 0.0 1.0 0.00 0.00 0.00 63 1013.0
20260502033449 50 199 1.0 1.0 0.00 0.00 0.00 62 1012.8
20260502032946 49 174 0.0 0.0 0.00 0.00 0.00 64 1013.0
20260502032443 50 189 0.0 1.0 0.00 0.00 0.00 63 1013.0
20260502031939 49 189 0.0 0.0 0.00 0.00 0.00 63 1013.0
20260502031438 50 173 0.0 0.0 0.00 0.00 0.00 62 1012.9
20260502030936 50 181 0.0 0.0 0.00 0.00 0.00 61 1012.9
20260502030433 50 178 0.0 0.0 0.00 0.00 0.00 61 1012.9
20260502025931 49 194 1.0 1.0 0.00 0.00 0.00 62 1012.9
20260502025427 48 174 0.0 0.0 0.00 0.00 0.00 63 1012.7
20260502024925 48 179 0.0 0.0 0.00 0.00 0.00 65 1012.8
20260502024423 47 170 0.0 0.0 0.00 0.00 0.00 67 1012.7
20260502023921 46 170 0.0 0.0 0.00 0.00 0.00 70 1012.7
20260502023418 45 158 0.0 0.0 0.00 0.00 0.00 72 1012.7
20260502022916 45 162 0.0 0.0 0.00 0.00 0.00 72 1012.8
20260502022412 45 162 0.0 0.0 0.00 0.00 0.00 72 1012.9
20260502021909 46 162 0.0 0.0 0.00 0.00 0.00 72 1012.8
20260502021406 45 162 0.0 0.0 0.00 0.00 0.00 70 1012.7
20260502020903 46 162 0.0 0.0 0.00 0.00 0.00 69 1012.6
20260502020401 45 162 0.0 0.0 0.00 0.00 0.00 69 1013.0
20260502015858 45 162 0.0 0.0 0.00 0.00 0.00 70 1012.5
20260502015355 46 168 0.0 0.0 0.00 0.00 0.00 66 1012.7
20260502014852 46 154 0.0 0.0 0.00 0.00 0.00 66 1012.4
20260502014349 46 154 0.0 0.0 0.00 0.00 0.00 66 1012.5
20260502013845 46 160 0.0 0.0 0.00 0.00 0.00 62 1012.5